Starlink 33941

operational
NORAD ID: 63765 Int'l Des: 2025-089 Owner: SPXS Country: US Constellation: starlink
LEOCIRCULAR

关于 Starlink 33941

正在加载描述...

实时位置

正在加载3D地球...

即将过境

高度历史

Altitude vs Time

uPlot chart will show altitude changes over time

两行轨道根数

1 63765U 25089Q 25353.83892282 .00017691 00000-0 65071-3 0 9997
2 63765 42.9998 136.3445 0001752 273.8331 86.2321 15.27586993 36734
Epoch: Dec 19, 2025 • Age: 22 hours

当前状态

高度 484.8 km
速度 7.63 km/s
星下点 32.66°N, 169.71°E
发射日期 Apr 29, 2025
运行时间 0.6 years
类型 internet

技术详情

分类 Payload
质量 575.00 kg
干质量 530.00 kg
总质量 575.00 kg
长度 0.30 m
直径 4.10 m
跨度 29.00 m
形状 Box + pan
制造商 SPXS
平台类型 Starlink V2MO
阶段状态 In Orbit
所有者/国家 SPXS/US

大型星座

Loading constellations...